Presure
151 207 199 133 233 184 229 175 207 254 241 282 221 220 270 267 176 170 104 153 151 181 154 160 156 153 161 149 149 152 155 103 113 161 155 152 157 157 158 161 175 179 179 181 179
171 185 126 176 163 234 145 238 231 225 213 285 286 249 290 264 241 218 170 156 169 136 179 158 163 158 163 142 148 143 151 158 109 130 160 156 151 154 157 157 156 161 167 167 165
171 160 205 187 224 218 237 216 253 249 154 204 283 271 177 162 168 270 212 183 87 191 138 182 146 151 166 155 145 148 148 154 155 114 139 156 157 152 152 154 156 152 161 161 158
192 208 219 158 220 211 241 232 256 250 272 157 131 251 186 273 171 251 244 178 177 200 188 165 164 147 152 162 157 148 155 149 149 155 126 108 154 156 159 152 155 151 152 150 153
187 203 207 225 229 175 208 238 249 253 259 278 268 279 265 321 246 171 299 260 178 172 187 173 141 146 178 161 146 153 156 154 153 154 157 133 156 153 159 153 153 151 152 152 154
186 182 187 196 209 226 230 208 211 262 267 267 268 273 274 294 280 267 394 348 259 180 172 180 172 168 170 171 161 161 152 153 109 159 137 146 139 149 152 157 156 156 156 157 151
183 189 207 221 209 232 231 228 173 251 271 264 270 278 284 300 311 322 95 421 80 301 179 189 199 181 175 173 181 151 159 156 151 147 151 148 153 131 127 153 147 154 152 150 145
188 187 192 197 218 219 244 168 242 283 279 265 265 274 283 284 318 336 195 420 405 389 116 118 177 190 183 172 174 166 173 166 150 151 150 152 144 159 162 125 157 155 154 152 156
165 184 192 177 199 169 232 263 151 267 291 282 269 279 289 286 298 342 384 416 397 180 326 152 185 144 190 170 176 172 173 165 155 149 148 151 154 152 159 170 137 122 157 160 155
183 188 213 213 214 236 242 225 280 288 297 285 279 287 290 306 305 326 383 432 389 357 364 280 121 193 85 185 122 171 167 174 156 158 140 138 151 157 156 161 170 151 129 156 154
185 204 189 126 241 213 241 284 300 289 265 293 282 293 286 316 325 375 386 447 413 156 167 274 248 114 96 74 100 85 176 60 143 173 145 161 155 157 161 154 163 176 140 161 156
169 206 170 224 230 229 263 277 305 302 315 282 291 303 320 329 323 360 438 440 413 307 364 343 265 238 180 108 120 155 154 179 59 175 171 155 157 167 160 157 159 161 169 168 140
183 194 192 225 209 253 263 260 269 305 335 213 310 314 322 340 390 398 450 267 253 290 371 114 294 243 164 166 97 136 142 161 106 158 172 166 160 159 97 154 151 153 158 154 159
190 215 206 199 248 250 260 308 304 314 318 335 323 327 329 375 426 433 432 416 407 405 397 348 167 133 238 169 135 190 153 164 90 169 169 175 156 160 161 159 114 112 154 167 171
203 201 218 211 248 239 289 267 306 321 316 334 357 354 308 409 427 411 414 417 83 389 383 323 272 267 78 69 131 86 107 113 136 81 128 162 166 166 168 128 144 157 151 148 164
198 225 209 227 257 243 268 309 311 314 277 340 362 289 353 324 448 417 394 393 417 399 371 368 376 130 271 232 213 93 79 114 143 151 113 178 167 169 169 163 150 117 154 148 159
191 197 222 231 262 279 268 291 313 319 342 352 348 293 411 382 437 417 392 402 414 396 344 346 363 340 137 232 226 207 147 90 130 130 125 138 140 160 149 159 106 148 156 154 160
211 213 241 251 268 270 297 319 324 328 339 363 339 288 411 444 420 406 395 397 400 386 385 310 446 347 99 283 246 219 200 195 182 106 157 118 85 148 168 167 164 148 157 153 110
226 211 196 262 245 274 322 331 329 341 361 306 322 399 427 424 406 403 401 388 387 376 338 280 309 371 306 86 97 66 212 196 183 199 168 148 184 97 176 173 168 168 138 161 158
217 231 219 252 290 314 287 373 354 282 290 388 399 399 441 405 395 405 390 381 376 368 367 323 389 144 389 179 220 66 153 71 201 128 194 127 117 174 95 173 163 159 113 129 160
235 229 261 254 307 290 362 382 283 338 380 385 392 416 417 398 391 394 379 374 369 366 355 334 304 367 165 161 307 237 189 80 64 121 197 192 179 166 128 85 93 86 112 141 133
249 285 257 275 325 321 279 371 371 376 391 372 403 422 407 385 382 379 367 357 360 364 350 357 316 307 374 291 165 260 240 228 225 218 219 199 138 70 82 152 165 163 97 92 101
239 272 279 280 317 326 290 363 357 376 378 369 402 421 401 380 374 365 359 367 353 367 345 342 315 320 324 368 267 287 160 237 194 228 213 212 184 174 163 167 166 150 176 181 175
253 271 315 247 352 277 370 360 365 358 370 366 397 398 398 374 368 354 358 361 349 360 339 333 299 293 300 311 170 71 312 217 252 242 208 224 205 177 172 159 168 160 94 137 179
238 272 318 327 342 356 380 360 352 367 362 385 397 383 396 372 370 350 130 356 354 354 340 321 321 311 300 307 310 270 289 238 264 254 251 212 178 197 113 153 171 168 141 164 179
264 251 373 271 371 358 356 355 352 367 374 367 390 383 393 371 371 344 342 349 355 337 350 323 299 304 313 329 327 302 269 171 211 263 254 244 217 86 190 78 177 169 90 119 135
257 348 380 289 369 365 363 360 354 372 376 392 395 379 364 391 368 347 341 340 346 339 357 337 307 297 291 295 319 308 342 360 335 299 259 120 83 205 194 173 180 174 178 97 176
Wind_Speed
45 56 52 53 57 52 55 53 53 52 60 49 67 66 84 98 92 81 60 90 80 83 75 76 74 69 69 64 61 57 54 36 38 47 47 45 38 36 34 32 34 38 38 37 36
47 48 55 46 54 66 55 58 61 51 57 50 51 61 58 89 85 106 110 75 97 61 85 79 80 73 73 63 64 61 62 60 39 46 49 47 45 40 37 35 36 34 33 33 33
43 44 71 63 69 69 65 62 60 56 61 63 49 57 70 73 76 98 118 103 32 97 75 93 70 72 77 72 68 68 69 63 58 40 49 51 48 46 44 40 38 39 36 35 36
75 80 83 53 80 77 69 68 62 63 54 68 57 56 72 59 84 64 108 106 102 105 98 90 84 72 76 78 77 70 76 63 61 61 47 37 52 48 48 44 45 43 40 39 38
73 78 80 80 82 62 78 71 65 60 58 53 49 46 56 46 48 53 94 80 107 100 102 95 70 76 87 83 70 75 79 70 64 64 58 52 55 51 50 50 48 47 45 43 42
77 71 76 83 82 81 78 76 71 64 59 57 49 46 48 40 64 71 73 66 55 111 98 100 94 91 92 88 80 85 78 74 46 66 55 60 51 52 54 52 51 49 47 46 44
82 76 83 87 81 82 79 75 57 70 59 55 53 49 37 49 58 62 27 66 14 114 109 110 109 101 95 93 92 80 83 77 68 67 65 64 57 55 45 55 51 53 52 49 44
77 87 91 92 88 83 79 64 76 64 60 55 54 51 34 54 58 59 70 63 69 78 60 62 104 110 103 95 94 90 93 84 71 74 71 64 63 69 60 43 58 56 55 52 50
61 92 97 69 84 71 81 78 55 69 61 57 55 55 46 55 56 58 63 60 71 94 110 82 119 80 110 94 98 91 90 85 79 75 74 66 73 74 65 64 51 37 57 55 53
93 87 101 99 92 91 88 74 76 69 61 57 56 57 54 59 55 56 61 60 72 82 92 131 70 118 45 104 54 89 88 90 76 82 69 68 76 77 68 67 66 58 42 55 55
100 101 99 45 104 96 88 85 74 70 57 59 58 56 61 59 47 55 62 60 70 78 81 133 135 69 65 26 52 31 96 12 71 93 75 86 83 76 76 65 63 63 51 61 61
80 99 86 109 108 102 95 90 78 67 57 68 62 62 58 54 42 56 60 60 70 71 87 104 140 129 119 57 50 85 79 100 12 95 93 80 83 90 73 67 66 63 64 67 49
108 113 111 114 103 110 98 88 79 70 65 48 61 61 62 57 58 55 57 47 47 64 89 43 126 135 76 106 66 79 79 88 43 88 94 95 87 83 49 70 66 62 66 62 64
111 117 114 112 120 109 100 89 84 76 66 66 63 57 55 56 50 42 55 57 64 71 77 88 65 56 132 97 69 110 91 100 34 103 95 100 82 84 82 73 56 53 68 71 73
118 120 121 118 116 107 103 97 85 80 72 70 67 59 44 55 44 47 49 56 44 68 80 63 85 108 29 21 65 36 4 62 87 31 60 88 93 90 90 66 68 74 70 69 75
121 121 121 123 117 104 105 95 86 83 67 74 63 52 53 47 39 40 52 51 49 63 60 82 80 70 132 133 128 10 28 39 68 83 47 97 88 95 93 83 73 60 76 74 77
120 127 126 121 116 110 107 95 89 82 76 70 63 54 56 46 37 39 49 48 46 57 80 59 87 100 76 126 139 136 90 33 53 60 63 72 71 87 76 80 48 74 83 75 76
126 124 124 123 122 114 103 96 89 79 71 67 64 57 55 41 35 40 42 46 47 57 65 94 53 96 22 135 143 139 138 132 113 47 81 53 55 74 98 93 90 77 82 75 47
123 124 122 127 119 115 98 91 85 77 67 64 60 55 45 42 36 38 40 46 50 61 80 63 97 77 116 22 37 20 145 126 117 127 95 74 94 27 98 95 94 99 71 80 77
130 125 122 126 122 108 100 76 74 84 76 66 59 49 34 38 37 34 41 46 54 64 71 88 63 59 73 96 119 23 81 22 135 65 112 60 56 86 24 101 99 97 42 46 81
130 125 128 124 115 110 88 71 87 77 65 61 55 44 34 32 33 33 42 48 53 64 74 85 91 63 94 80 106 130 114 39 9 70 116 105 95 93 58 17 23 29 47 73 64
135 139 125 127 115 97 102 74 66 65 62 57 48 35 31 31 29 32 46 47 55 66 73 73 84 95 67 114 95 139 145 145 143 136 128 111 73 18 20 99 107 105 46 36 45
131 139 130 125 116 99 101 73 67 62 53 49 43 33 32 30 31 36 47 51 58 66 75 79 84 81 83 69 127 125 83 137 111 142 129 126 107 102 98 101 109 92 108 108 103
141 141 128 119 102 113 71 70 68 59 53 47 42 33 30 31 34 40 48 54 59 68 78 87 96 98 99 97 55 29 118 115 146 144 110 130 118 107 108 102 112 108 42 70 106
137 141 131 125 96 84 67 70 65 61 57 48 40 37 29 31 36 41 19 55 60 66 80 88 92 96 100 103 106 128 124 86 146 144 142 118 96 116 26 77 117 110 78 97 101
144 139 98 122 63 76 76 74 68 65 54 49 41 36 30 32 38 44 52 57 60 68 81 91 91 90 84 90 95 109 128 77 85 143 142 136 123 31 118 16 117 110 43 57 70
139 120 80 118 63 67 69 67 66 67 54 51 34 32 33 35 36 45 53 60 62 69 80 92 98 96 96 98 94 101 82 77 98 123 139 43 17 127 124 101 118 115 111 40 100
Wind_Direction
291 332 323 280 325 296 312 281 287 290 277 283 258 254 247 244 234 238 243 242 243 229 240 232 231 232 229 232 234 231 231 233 233 222 225 226 222 224 223 224 223 224 227 229 232
312 330 279 309 302 323 279 309 302 290 281 290 277 260 264 243 244 239 234 233 236 241 226 234 232 231 227 234 232 234 231 232 234 237 223 223 226 222 223 226 228 228 225 224 226
323 300 334 325 329 323 323 307 308 299 267 266 283 268 250 243 242 237 236 230 239 227 242 225 238 236 228 229 233 232 235 230 230 231 233 225 223 225 224 222 226 230 229 229 227
341 340 335 292 330 327 324 316 317 302 300 266 251 267 251 262 243 251 233 238 234 221 223 234 232 238 234 227 227 233 233 232 231 231 237 233 227 222 223 222 222 228 230 231 232
337 339 337 336 331 297 322 317 317 307 300 297 282 282 262 282 261 254 242 238 237 241 226 232 237 238 222 228 234 232 233 231 229 231 231 240 227 227 226 226 226 228 227 229 232
341 338 337 334 330 328 322 317 307 309 302 299 287 279 270 280 256 257 265 251 244 236 239 231 230 230 227 226 228 225 236 233 240 232 232 235 237 234 230 228 227 227 229 229 229
337 337 335 333 331 330 324 315 287 312 304 298 295 290 289 280 268 264 226 252 243 225 235 221 220 226 226 226 221 235 231 232 230 235 230 235 233 239 231 230 232 230 232 234 235
335 338 337 334 333 326 325 302 315 314 307 295 296 293 287 270 277 266 249 252 235 226 239 235 234 222 221 227 224 227 225 227 232 236 235 231 237 236 233 235 232 232 233 236 235
322 338 335 334 329 309 324 326 305 317 308 303 295 299 291 269 270 273 263 249 238 233 220 228 233 231 218 227 225 225 225 226 227 235 236 233 234 238 232 234 238 236 234 233 238
335 335 335 335 330 331 328 321 325 323 315 304 300 299 288 280 272 271 264 250 235 223 219 216 227 226 241 222 238 224 226 226 226 227 236 236 237 237 236 234 233 240 235 237 239
333 334 336 305 336 333 329 332 327 326 311 306 302 298 289 287 281 280 265 247 235 235 236 216 220 227 232 260 228 255 221 251 235 222 228 230 236 240 236 238 238 237 247 237 239
337 337 326 335 334 332 329 332 330 326 318 308 305 301 295 290 269 275 260 242 234 229 223 219 217 218 224 241 235 221 220 222 217 224 224 235 234 239 238 239 239 238 240 239 246
336 336 338 335 331 332 333 330 328 326 320 297 303 302 299 291 286 273 256 239 239 231 225 236 214 217 219 226 239 231 227 228 220 234 224 228 231 238 244 237 241 242 242 239 248
337 337 336 335 335 331 331 331 329 324 321 311 308 305 297 292 282 261 244 238 229 226 226 222 224 218 216 221 232 219 224 228 226 228 227 226 234 234 238 233 240 241 246 245 245
336 335 335 332 332 329 334 330 327 323 320 317 310 307 292 292 281 260 244 241 232 225 225 223 220 216 227 226 224 220 136 225 234 224 226 227 227 231 237 241 238 240 245 248 249
335 336 333 332 332 329 334 330 325 321 320 315 310 299 298 286 274 249 249 242 229 221 220 220 216 220 211 215 216 156 212 221 225 231 226 224 224 228 231 230 231 241 239 244 250
333 332 334 330 332 335 333 328 323 320 317 313 309 300 299 289 268 246 244 239 225 215 218 221 216 214 226 212 215 215 225 234 218 228 227 225 231 227 236 236 229 235 235 241 247
332 331 333 333 335 335 330 324 321 318 317 311 305 300 296 282 261 247 239 230 215 210 204 218 216 213 229 209 213 217 219 223 223 209 234 224 238 228 230 232 235 238 237 239 236
334 329 330 335 333 334 326 321 320 317 312 314 304 299 294 277 262 249 232 222 209 204 206 214 214 219 211 234 224 260 219 223 228 223 231 221 226 226 222 232 234 236 233 235 239
331 332 328 333 332 330 329 315 313 316 315 304 302 300 290 268 263 247 223 217 208 204 199 212 206 216 213 217 212 254 220 244 224 238 227 223 231 221 218 228 232 236 228 228 236
334 331 335 333 330 330 323 311 321 313 306 304 303 301 288 267 258 235 221 214 209 203 204 205 216 213 219 225 214 213 214 231 251 233 226 224 225 224 218 235 223 209 232 236 238
336 337 334 332 328 326 328 315 313 308 302 304 304 298 283 266 246 221 220 210 207 204 201 197 210 215 211 212 222 212 214 219 222 225 224 222 228 222 175 229 230 233 246 238 244
335 336 334 334 328 326 329 316 315 310 304 305 305 297 284 260 240 218 217 210 207 202 201 195 203 210 213 213 211 214 227 218 218 222 223 222 218 224 229 227 228 234 232 238 239
337 336 331 333 325 328 312 309 304 312 310 306 305 300 282 255 239 219 216 210 204 203 200 196 208 216 215 214 226 265 216 220 218 221 222 223 216 221 225 231 229 234 207 225 239
336 334 329 328 323 315 304 310 311 308 308 304 303 291 281 251 238 218 233 212 206 204 199 203 203 209 215 216 216 216 217 222 218 220 222 223 221 218 188 218 231 236 234 237 238
335 334 326 331 293 303 313 308 311 306 306 299 299 284 280 248 241 218 217 216 208 204 201 202 206 209 209 216 221 217 217 221 218 220 222 221 219 204 221 251 229 236 200 241 248
335 327 317 329 302 295 301 301 299 299 303 299 283 278 271 255 238 220 215 218 212 205 206 202 205 211 216 220 217 221 222 223 225 223 223 228 248 220 223 225 228 233 234 229 238